Time,TemperatureF,DewpointF,PressureIn,WindDirection,WindDirectionDegrees,WindSpeedMPH,WindSpeedGustMPH,Humidity,HourlyPrecipIn,Conditions,Clouds,dailyrainin,SoftwareType,DateUTC
2013-06-13 00:03:00,61.5,6.5,29.73,South,186,4.0,12.0,11,0.00,,SKC,0.00,VWS V12.07,2013-06-13 07:03:00,
2013-06-13 01:02:00,61.3,-0.5,29.73,WNW,292,8.0,12.0,8,0.00,,SKC,0.00,VWS V12.07,2013-06-13 08:02:00,
2013-06-13 02:03:00,61.5,6.5,29.72,WNW,283,9.0,11.0,11,0.00,,SKC,0.00,VWS V12.07,2013-06-13 09:03:00,
2013-06-13 03:02:00,62.0,20.5,29.71,West,273,5.0,17.0,20,0.00,,SKC,0.00,VWS V12.07,2013-06-13 10:02:00,
2013-06-13 04:03:00,61.3,2.0,29.71,WNW,288,9.0,12.0,9,0.00,,SKC,0.00,VWS V12.07,2013-06-13 11:03:00,
2013-06-13 05:03:00,61.3,22.2,29.71,West,281,9.0,9.0,22,0.00,,SKC,0.00,VWS V12.07,2013-06-13 12:03:00,
2013-06-13 06:03:00,61.8,20.3,29.73,WNW,285,6.0,13.0,20,0.00,,SKC,0.00,VWS V12.07,2013-06-13 13:03:00,
2013-06-13 07:03:00,63.9,22.1,29.74,WNW,293,5.0,14.0,20,0.00,,SKC,0.00,VWS V12.07,2013-06-13 14:03:00,
2013-06-13 08:03:00,65.6,27.9,29.75,West,275,8.0,11.0,24,0.00,,SKC,0.00,VWS V12.07,2013-06-13 15:03:00,
2013-06-13 09:03:00,68.1,24.3,29.76,North,351,1.0,10.0,19,0.00,,SKC,0.00,VWS V12.07,2013-06-13 16:03:00,
2013-06-13 10:03:00,71.1,21.1,29.76,WSW,246,3.0,9.0,15,0.00,,SKC,0.00,VWS V12.07,2013-06-13 17:03:00,
2013-06-13 11:03:00,73.2,22.8,29.77,West,267,7.0,8.0,15,0.00,,SKC,0.00,VWS V12.07,2013-06-13 18:03:00,
2013-06-13 12:03:00,74.4,25.3,29.76,WSW,252,3.0,10.0,16,0.00,,SKC,0.00,VWS V12.07,2013-06-13 19:03:00,
2013-06-13 13:02:00,75.6,26.3,29.76,West,271,12.0,12.0,16,0.00,,SKC,0.00,VWS V12.07,2013-06-13 20:02:00,
2013-06-13 14:03:00,75.8,24.9,29.75,WNW,287,9.0,12.0,15,0.00,,SKC,0.00,VWS V12.07,2013-06-13 21:03:00,
2013-06-13 15:03:00,75.3,26.0,29.74,WNW,282,4.0,13.0,16,0.00,,SKC,0.00,VWS V12.07,2013-06-13 22:03:00,
2013-06-13 16:03:00,75.3,30.2,29.73,West,279,11.0,14.0,19,0.00,,SKC,0.00,VWS V12.07,2013-06-13 23:03:00,
2013-06-13 17:03:00,74.9,25.7,29.71,West,277,11.0,13.0,16,0.00,,SKC,0.00,VWS V12.07,2013-06-14 00:03:00,
2013-06-13 18:02:00,72.5,30.4,29.71,West,265,4.0,11.0,21,0.00,,SKC,0.00,VWS V12.07,2013-06-14 01:02:00,
2013-06-13 19:03:00,69.1,30.8,29.71,West,275,2.0,7.0,24,0.00,,SKC,0.00,VWS V12.07,2013-06-14 02:03:00,
2013-06-13 20:02:00,64.2,22.3,29.70,WNW,292,6.0,10.0,20,0.00,,SKC,0.00,VWS V12.07,2013-06-14 03:02:00,
2013-06-13 21:03:00,62.7,18.6,29.70,West,279,10.0,13.0,18,0.00,,SKC,0.00,VWS V12.07,2013-06-14 04:03:00,
2013-06-13 22:03:00,62.3,17.0,29.71,West,261,5.0,14.0,17,0.00,,SKC,0.00,VWS V12.07,2013-06-14 05:03:00,
2013-06-13 23:03:00,61.6,17.7,29.71,NW,309,4.0,13.0,18,0.00,,SKC,0.00,VWS V12.07,2013-06-14 06:03:00,